[[{"header":{"parameterUnit":"m.s-1","parameterCategory":1,"la1":30.2991,"la2":30.254,"lo1":-89.0895,"lo2":-89.0444,"dy":0.0017,"dx":0.0017,"nx":28,"ny":28,"refTime":"2025-08-28T21:00:00:Z","depth":0,"parameterNumber":2,"parameterNumberName":"U-component_of_WINDS"},"data":[0,0,0,0,0,0,0,0,0,0,0,0,0,0,0,0,0,0,0,0,0,0,0,0,0,0,0,0,0,0,0,0,0,0,0,0,0,0,0,0,0,0,0,0,0,0,0,0,0,0,0,0,0,0,0,0,0,0,0.1257,0.1257,0,0.1252,0.1252,0.1252,0.1257,0.1257,0.1257,0.1257,0.1253,0.1252,0.1252,0,0,0,0,0,0,0,0,0,0,0,0,0,0.1272,0.1271,0.1257,0.1257,0.1257,0.1252,0.1252,0.1252,0.1257,0.1257,0.1257,0.1257,0.1253,0.1252,0.1252,0,0,0,0,0,0,0,0,0,0,0,0,0,0.1266,0.1271,0.1257,0.1259,0.1259,0.1252,0.1252,0.1252,0.1257,0.1257,0.1257,0.1257,0.1253,0.1252,0.1252,0.1244,0,0,0.1251,0.125,0,0,0,0,0,0,0,0,0.1266,0.1265,0.1259,0.1259,0.1259,0.1255,0.1255,0.1249,0.1256,0.1257,0.1257,0.1258,0.1253,0.1253,0.1251,0.1243,0.1243,0.1251,0.125,0.125,0.125,0,0,0,0,0,0,0,0.1267,0.1266,0.1255,0.1258,0.1259,0.126,0.1259,0.1254,0.1254,0.1257,0.1258,0.1257,0.1253,0.1252,0.1251,0.1243,0.1251,0.125,0.125,0.125,0.1228,0.1228,0,0,0,0,0,0,0.1267,0.1266,0.1255,0.1255,0.1263,0.1259,0.1259,0.1256,0.1254,0.1254,0.1257,0.1257,0.1252,0.1252,0.1251,0.1241,0.125,0.125,0.1249,0.1229,0.1228,0.1228,0,0,0,0,0,0,0.1267,0.1266,0.1256,0.1261,0.1259,0.1259,0.1256,0.1256,0.1254,0.1253,0.1254,0.1255,0.1253,0.1252,0.1245,0.1241,0.125,0.1249,0.1229,0.1228,0.1228,0.1221,0,0,0,0,0,0,0.1267,0.1266,0.1262,0.126,0.1259,0.125,0.1255,0.1256,0.1253,0.1254,0.1252,0.1252,0.1253,0.1246,0.1245,0.1241,0.1249,0.1229,0.1229,0.1228,0.1222,0.1221,0.122,0,0,0,0,0,0.1268,0.1261,0.1262,0.1261,0.1255,0.1249,0.1249,0.125,0.1253,0.125,0.1249,0.1252,0.1242,0.1245,0.1244,0.124,0.123,0.1229,0.1228,0.1222,0.1221,0.122,0,0,0,0,0,0,0.1263,0.1261,0.1262,0.1254,0.1252,0.125,0.1246,0.1248,0.1245,0.1246,0.1247,0.1247,0.124,0.1239,0.1243,0.1232,0.1236,0.1235,0.1232,0.1231,0.123,0.123,0.1248,0,0,0,0,0,0.1261,0.1256,0.1255,0.1248,0.1247,0.1247,0.1244,0.1245,0.1243,0.1242,0.1241,0.1239,0.1236,0.1233,0.123,0.1222,0.1221,0.1218,0.1217,0.1216,0.1215,0.1211,0.121,0.1226,0.1226,0.1226,0,0,0.1257,0.1255,0.1252,0.1247,0.1245,0.1241,0.1246,0.1241,0.1238,0.1242,0.1235,0.1235,0.1233,0.1225,0.1222,0.1224,0.1211,0.1215,0.1214,0.1214,0.121,0.1209,0.1207,0.1225,0.1225,0.1225,0,0,0.1247,0.1245,0.1239,0.1237,0.1234,0.1234,0.1233,0.1231,0.123,0.1224,0.1227,0.1223,0.1217,0.1215,0.1213,0.1203,0.1205,0.1202,0.1196,0.1191,0.119,0.1189,0.1185,0.1184,0.1201,0.1201,0.1201,0,0.1242,0.1235,0.1236,0.1231,0.1229,0.1231,0.1226,0.1224,0.122,0.1219,0.1221,0.1213,0.1212,0.1204,0.1202,0.12,0.1199,0.1202,0.119,0.1189,0.1188,0.1185,0.1183,0.12,0.12,0.12,0.12,0,0.1229,0.1225,0.122,0.1216,0.1214,0.1208,0.1208,0.1206,0.1207,0.1206,0.12,0.1199,0.1195,0.1193,0.1194,0.1186,0.1187,0.119,0.1195,0.1186,0.1183,0.1182,0.12,0.12,0.12,0.12,0,0,0.1216,0.1213,0.1211,0.1209,0.1206,0.1203,0.1198,0.1194,0.1191,0.1189,0.1185,0.1179,0.1181,0.118,0.118,0.1177,0.1168,0.118,0.118,0.1178,0.1159,0.1157,0.1155,0.117,0.117,0.1169,0.1159,0,0.1206,0.1197,0.1197,0.1189,0.1184,0.1187,0.1182,0.118,0.118,0.1176,0.1176,0.1172,0.1175,0.1174,0.1171,0.117,0.1165,0.1171,0.1166,0.1166,0.1167,0.1154,0.1151,0.1142,0.1158,0.1158,0.1157,0,0.1193,0.119,0.1181,0.1178,0.1177,0.1172,0.1169,0.1165,0.1163,0.1163,0.1161,0.1162,0.1157,0.1162,0.1155,0.1159,0.1157,0.1157,0.1156,0.1156,0.1161,0.1153,0.1139,0.1137,0.1155,0.1156,0.1156,0,0.1185,0.1178,0.1171,0.117,0.1167,0.1164,0.1163,0.1161,0.1158,0.1155,0.1154,0.115,0.1148,0.1146,0.1146,0.115,0.1139,0.1144,0.1139,0.1139,0.1137,0.1137,0.1122,0.1135,0.1135,0.1136,0.1136,0,0.1174,0.1168,0.1168,0.1164,0.1157,0.1158,0.1152,0.1151,0.1149,0.1145,0.1147,0.1143,0.1144,0.1141,0.1141,0.1135,0.1134,0.1134,0.1134,0.1134,0.1134,0.1133,0.1134,0.1135,0.1135,0.1135,0.1135,0,0.1163,0.1162,0.1156,0.1153,0.1153,0.1148,0.1146,0.1143,0.1142,0.1137,0.1136,0.1136,0.1131,0.1132,0.1127,0.1127,0.112,0.1121,0.1121,0.1121,0.1116,0.1117,0.11,0.1098,0.1113,0.1113,0.1112,0,0.1156,0.1151,0.1148,0.1146,0.1144,0.114,0.1137,0.1138,0.1135,0.1132,0.1129,0.1125,0.1122,0.1115,0.1114,0.1111,0.1112,0.1106,0.1111,0.1111,0.1112,0.1112,0.1111,0.1105,0.1105,0.1105,0.1105,0,0.1143,0.1143,0.1139,0.1135,0.1132,0.1129,0.1126,0.1124,0.1124,0.1121,0.1117,0.1114,0.111,0.1106,0.1102,0.1101,0.1103,0.1103,0.1102,0.1101,0.1101,0.1101,0.1118,0.1104,0.1104,0.1104,0.1104,0.1104,0.1134,0.113,0.1127,0.1123,0.1121,0.1118,0.1115,0.1114,0.111,0.1106,0.1107,0.1102,0.1099,0.1095,0.1094,0.109,0.1092,0.109,0.109,0.1089,0.1088,0.1102,0.1089,0.1089,0.1089,0.1089,0.1089,0,0.1121,0.112,0.1116,0.1111,0.1108,0.111,0.1107,0.1104,0.11,0.1097,0.1094,0.1089,0.1085,0.1084,0.108,0.1078,0.1078,0.1077,0.1077,0.1077,0.1087,0.1088,0.1076,0.1076,0.1076,0.1076,0.1076,0.1076,0.1114,0.1108,0.1107,0.11,0.1099,0.1093,0.1092,0.1089,0.1087,0.1081,0.1078,0.1077,0.1076,0.1072,0.1068,0.1068,0.1067,0.1065,0.1065,0.1075,0.1076,0.1077,0.1079,0.1064,0.1064,0.1055,0.1055,0.1055]},{"header":{"parameterUnit":"m.s-1","parameterCategory":1,"la1":30.2991,"la2":30.254,"lo1":-89.0895,"lo2":-89.0444,"dy":0.0017,"dx":0.0017,"nx":28,"ny":28,"refTime":"2025-08-28T21:00:00:Z","depth":0,"parameterNumber":3,"parameterNumberName":"V-component_of_WINDS"},"data":[0,0,0,0,0,0,0,0,0,0,0,0,0,0,0,0,0,0,0,0,0,0,0,0,0,0,0,0,0,0,0,0,0,0,0,0,0,0,0,0,0,0,0,0,0,0,0,0,0,0,0,0,0,0,0,0,0,0,2.5033,2.5032,0,2.4932,2.4931,2.493,2.4942,2.4944,2.4945,2.4947,2.4838,2.4833,2.4829,0,0,0,0,0,0,0,0,0,0,0,0,0,2.523,2.5226,2.5033,2.5032,2.5031,2.4933,2.4931,2.493,2.4942,2.4944,2.4946,2.4947,2.4839,2.4834,2.4829,0,0,0,0,0,0,0,0,0,0,0,0,0,2.5138,2.5225,2.5033,2.5025,2.5023,2.4933,2.4931,2.4929,2.4941,2.4944,2.4946,2.4948,2.4841,2.4835,2.4828,2.4738,0,0,2.4808,2.4805,0,0,0,0,0,0,0,0,2.5143,2.5131,2.5027,2.5025,2.5023,2.4952,2.496,2.4865,2.4941,2.4972,2.4947,2.495,2.4874,2.4864,2.484,2.4733,2.4728,2.4807,2.4803,2.48,2.4798,0,0,0,0,0,0,0,2.5149,2.5135,2.4993,2.5026,2.5023,2.5024,2.5014,2.4942,2.491,2.497,2.497,2.4958,2.4873,2.4846,2.4837,2.4727,2.4807,2.4801,2.4797,2.4795,2.4537,2.4535,0,0,0,0,0,0,2.5159,2.514,2.4996,2.499,2.5091,2.5018,2.5007,2.4972,2.4911,2.4904,2.4956,2.4959,2.4856,2.4845,2.4834,2.4722,2.48,2.4794,2.479,2.454,2.4537,2.4534,0,0,0,0,0,0,2.5163,2.5146,2.5,2.5065,2.5047,2.5013,2.4974,2.4969,2.4943,2.4901,2.4895,2.4936,2.4858,2.4843,2.4761,2.4718,2.4791,2.4785,2.4544,2.4539,2.4535,2.4499,0,0,0,0,0,0,2.5169,2.5147,2.5114,2.5065,2.5043,2.4932,2.4971,2.4965,2.4932,2.4935,2.488,2.4873,2.4859,2.4771,2.4755,2.471,2.478,2.4547,2.4542,2.4537,2.4504,2.4494,2.4486,0,0,0,0,0,2.5176,2.5107,2.5113,2.5095,2.5002,2.4929,2.4917,2.4903,2.4929,2.4894,2.4867,2.4875,2.4726,2.4763,2.4744,2.4697,2.455,2.4543,2.4537,2.4508,2.4496,2.4486,0,0,0,0,0,0,2.5151,2.5101,2.5106,2.502,2.4979,2.4931,2.4887,2.4891,2.4841,2.4845,2.4829,2.4816,2.4733,2.4708,2.4749,2.4606,2.4641,2.4631,2.4625,2.4614,2.4605,2.4611,2.4774,0,0,0,0,0,2.5136,2.5084,2.5042,2.497,2.4949,2.4922,2.489,2.4883,2.4839,2.4821,2.4788,2.4743,2.4686,2.4649,2.4594,2.4501,2.4487,2.4459,2.445,2.4443,2.4433,2.4379,2.4365,2.4513,2.4513,2.4513,0,0,2.5104,2.507,2.5037,2.4964,2.4931,2.4875,2.4907,2.4846,2.4803,2.4811,2.4732,2.4706,2.4655,2.4566,2.4526,2.4542,2.439,2.4435,2.4429,2.4423,2.4371,2.4357,2.4345,2.4508,2.4509,2.451,0,0,2.5016,2.4986,2.4922,2.4889,2.4839,2.4821,2.4806,2.4757,2.4741,2.4662,2.4666,2.4614,2.4517,2.4479,2.4447,2.4344,2.4348,2.4327,2.4278,2.4226,2.4214,2.4203,2.4164,2.415,2.4318,2.4318,2.4318,0,2.4981,2.4898,2.4888,2.4826,2.4792,2.4799,2.4732,2.47,2.4634,2.461,2.463,2.4507,2.4473,2.4375,2.4349,2.4325,2.4304,2.4332,2.4217,2.4206,2.4196,2.4158,2.4144,2.4315,2.4316,2.4316,2.4316,0,2.4856,2.4799,2.4752,2.469,2.4652,2.4588,2.4565,2.4527,2.4524,2.4503,2.442,2.438,2.4317,2.4293,2.4289,2.4193,2.4205,2.4221,2.4256,2.418,2.4144,2.4129,2.4312,2.4313,2.4313,2.4314,0,0,2.4749,2.4682,2.4665,2.4636,2.4582,2.4536,2.4471,2.441,2.4376,2.4331,2.4274,2.4192,2.4206,2.417,2.4162,2.4116,2.4033,2.4137,2.4136,2.4117,2.3922,2.3908,2.3892,2.4037,2.4034,2.4032,2.3925,0,2.4654,2.4541,2.4529,2.4427,2.4372,2.4377,2.432,2.4279,2.4258,2.4206,2.4182,2.4123,2.4148,2.4126,2.4081,2.4053,2.3993,2.4061,2.3981,2.3978,2.3991,2.3873,2.3859,2.376,2.3912,2.3909,2.3907,0,2.4527,2.4479,2.4372,2.4324,2.43,2.4249,2.4191,2.4143,2.4096,2.4083,2.4043,2.404,2.397,2.401,2.3913,2.3959,2.3925,2.3906,2.3902,2.3892,2.3937,2.3857,2.3729,2.3713,2.3886,2.3887,2.3889,0,2.4456,2.4365,2.4288,2.4264,2.4206,2.417,2.4144,2.4099,2.4063,2.4012,2.3988,2.3929,2.3896,2.385,2.383,2.3861,2.3732,2.3771,2.3718,2.3718,2.3688,2.369,2.355,2.3671,2.3672,2.3672,2.3672,0,2.4349,2.4283,2.4255,2.4208,2.4133,2.4119,2.4045,2.402,2.398,2.3926,2.3927,2.3876,2.3855,2.3799,2.3783,2.3703,2.3689,2.3675,2.3671,2.3674,2.3675,2.365,2.3655,2.3668,2.3669,2.367,2.367,0,2.4257,2.4236,2.4153,2.4105,2.4091,2.4038,2.3996,2.3949,2.3929,2.386,2.3843,2.381,2.3745,2.3722,2.3643,2.3632,2.3538,2.3541,2.3554,2.3553,2.35,2.3504,2.3336,2.3312,2.3452,2.3451,2.345,0,2.4189,2.4138,2.4085,2.405,2.4023,2.3966,2.3929,2.3913,2.3874,2.3816,2.3775,2.3711,2.3658,2.3554,2.3521,2.346,2.346,2.3406,2.3451,2.3454,2.3456,2.3458,2.3452,2.3396,2.3395,2.3394,2.3393,0,2.4069,2.4061,2.4009,2.3952,2.3909,2.3863,2.3818,2.3789,2.3766,2.3722,2.3656,2.3615,2.3535,2.347,2.3407,2.3378,2.338,2.3379,2.3363,2.3364,2.3372,2.3364,2.3528,2.3383,2.3384,2.3384,2.3385,2.3385,2.3985,2.3939,2.3895,2.3835,2.3801,2.3759,2.3712,2.3686,2.3631,2.3565,2.3559,2.3487,2.3439,2.3355,2.3323,2.3265,2.328,2.3257,2.3251,2.3245,2.324,2.3384,2.3254,2.3254,2.3254,2.3255,2.3255,0,2.3864,2.3835,2.3781,2.3719,2.3672,2.3681,2.3632,2.3591,2.3528,2.3485,2.3433,2.3356,2.3293,2.3256,2.3192,2.3152,2.3152,2.3136,2.3137,2.313,2.3232,2.3251,2.3137,2.3137,2.3137,2.3137,2.3138,2.3138,2.3795,2.3717,2.3703,2.3607,2.3579,2.351,2.348,2.3441,2.3405,2.332,2.3268,2.3245,2.3202,2.3135,2.3077,2.3067,2.3042,2.3025,2.3016,2.3111,2.3123,2.3135,2.3152,2.302,2.302,2.2919,2.2918,2.2917]}]]